Location: St Paul
(33.9360°N, 83.4200°W)
Time: 02:28:36
(UTC-04:00)

Tiangong 1 - Pass Details

Date: 06 October 2017
Orbit: 292 x 320 km, 42.8° (Epoch: 21 October)

Event Time Altitude Azimuth Distance (km) Brightness Sun altitude
Rises 20:07:26 0° 268° (W) 2,034 6.8 -12.6°
Reaches altitude 10° 20:09:38 10° 283° (WNW) 1,200 5.0 -13.0°
Maximum altitude 20:11:54 24° 341° (NNW) 700 2.6 -13.5°
Enters shadow 20:13:29 15° 29° (NNE) 974 2.8 -13.8°
